Location: Melita
(38.4566°N, 122.6369°W)
Time: 19:33:44
(UTC+00:00)

Meteor 2-10 - Pass Details

Date: 24 January 2020
Orbit: 738 x 869 km, 81.2° (Epoch: 28 February)

Event Time Altitude Azimuth Distance (km) Brightness Sun altitude
Rises 13:07:28 0° 180° (S) 3,391 7.4 -26.3°
Reaches altitude 10° 13:09:55 10° 178° (S) 2,443 6.7 -25.8°
Maximum altitude 13:15:24 68° 96° (E) 882 4.4 -24.7°
Drops below altitude 10° 13:20:43 10° 15° (NNE) 2,373 6.6 -23.7°
Sets 13:23:04 0° 13° (NNE) 3,286 7.4 -23.2°
